BRASILSAT B4 (26469 NORAD) Tracking and Keplerian Element Data

This shows tracking and keplerian element data for the satellite.

Feedback or suggestion? Click here.




ElementValue
Catalog26469
NameBRASILSAT B4
Epoch Orbit7624
Epoch Day160.29099056
Epoch Year2021
RAAN75.8858
Inclination4.792
Eccentricity0.0017349
Argument of Perigee26.2589
Mean Anonmoly190.8663
Mean Motion1.00049155
Decay Rate-2.4E-06
L11 26469U 00046A 21160.29099056 -.00000240 00000-0 00000+0 0 9993
L22 26469 4.7920 75.8858 0017349 26.2589 190.8663 1.00049155 76245



Live tracking and technical data element details for BRASILSAT B4 (NORAD 26469). BRASILSAT B4 can be tracked NOW for your location showing map with azimuth and elevation plus other details from your city location.







IsCatalogInMostPopularTable: catalog: 26469, numindb: 353
Update: records affected: 1



GetName: 26469 BRASILSAT B4

Hit Count: updated at: Thu, 22 May 2025 02:41:54 GMT